Regional Weather Roundup
Issued by NWS

Home | Current Version | Previous Version | Text Only | Print | Product List | Glossary On
Versions: 1 2 3 4 5 6 7 8 9 10 11 12 13 14 15 16 17 18 19 20 21 22 23 24 25 26 27 28 29 30 31 32 33 34 35 36 37 38 39 40 41 42 43 44 45 46 47 48 49 50
000
ASUS43 KMKX 281721
RWRWI

WISCONSIN REGIONAL WEATHER ROUNDUP
NATIONAL WEATHER SERVICE MILWAUKEE/SULLIVAN WI
1200 PM CDT FRI AUG 28 2015

NOTE: "FAIR" INDICATES FEW OR NO CLOUDS BELOW 12,000 FEET WITH NO
SIGNIFICANT WEATHER AND/OR OBSTRUCTIONS TO VISIBILITY.

WIZ001-002-006>008-014>016-023>028-281800-
NORTHWEST WISCONSIN

CITY           SKY/WX    TMP DP  RH WIND       PRES   REMARKS
SUPERIOR ARPT  SUNNY     72  65  78 W12G17    29.99S
ASHLAND        CLOUDY    71  65  81 SW7       30.01R
HAYWARD        PTSUNNY   70  62  76 SW10      30.04S
SIREN          PTSUNNY   73  62  69 SW13      30.03F
CUMBERLAND     CLOUDY    68  61  77 SW7       30.06R
RICE LAKE      CLOUDY    68  62  80 S3        30.07S
CHETEK         CLOUDY   N/A N/A N/A S5        30.06S
LADYSMITH      CLOUDY    68  62  80 SW5       30.09R
EAU CLAIRE     LGT RAIN  65  62  90 S8        30.05F
MENOMONIE      DRIZZLE   66  64  93 SE8       30.05F
NEW RICHMOND   CLOUDY    69  64  83 S3        30.04S
OSCEOLA        CLOUDY    71  69  93 SE6       30.06R
$$

WIZ003>005-009-010-017-018-281800-
NORTH CENTRAL WISCONSIN

CITY           SKY/WX    TMP DP  RH WIND       PRES   REMARKS
MANITOWISH WTR CLOUDY    67  62  83 SW10      30.06R
ARBOR VITAE    CLOUDY    69  63  79 SW9       30.07S
WOODRUFF       CLOUDY    69  63  79 SW9       30.07S
RHINELANDER    CLOUDY    69  60  73 SW10      30.09S
EAGLE RIVER    PTSUNNY   67  58  72 W13G20    30.07R
LAND O LAKES   CLOUDY    68  60  76 SW12      30.07R
PHILLIPS       PTSUNNY   68  62  80 SW10      30.07R
TOMAHAWK       CLOUDY    67  60  77 SW6       30.09S
MEDFORD        CLOUDY    64  60  88 SW8       30.10S
MERRILL        CLOUDY    68  62  82 SW9       30.09F
$$

WIZ029-030-035-036-043>047-281800-
CENTRAL WISCONSIN

CITY           SKY/WX    TMP DP  RH WIND       PRES   REMARKS
WAUSAU         CLOUDY    67  60  78 W7        30.08F
MOSINEE        MOSUNNY   64  61  88 SW9       30.11S
MARSHFIELD     LGT RAIN  65  59  81 SW7       30.10S
STEVENS POINT  RAIN      64  59  83 SW7       30.11F
WAUPACA        CLOUDY    69  61  74 S6        30.12S
WAUTOMA        CLOUDY    67  60  78 SW10      30.14R
WISC RAPIDS    LGT RAIN  65  60  84 SW6       30.12S
CAMP DOUGLAS   LGT RAIN  66  66 100 S7        30.11S
$$

WIZ011>013-019>022-031-037>040-048>050-281800-
NORTHEAST WISCONSIN

CITY           SKY/WX    TMP DP  RH WIND       PRES   REMARKS
ANTIGO         PTSUNNY   69  60  73 W12       30.10S
SHAWANO        PTSUNNY   73  61  66 SW8       30.10S
OCONTO         PTSUNNY   72  62  71 SW9       30.08F
STURGEON BAY   PTSUNNY   72  59  64 S12       30.11F
GREEN BAY      CLOUDY    71  61  70 SW10      30.10F
MANITOWOC      CLOUDY    68  60  75 MISG      30.13F
APPLETON       PTSUNNY   68  57  68 S9        30.11S
CLINTONVILLE   CLOUDY    70  59  68 SW10      30.10S
OSHKOSH        CLOUDY    69  60  73 S8        30.12R
$$

WIZ032>034-041-042-053>061-281800-
SOUTHWEST WISCONSIN

CITY           SKY/WX    TMP DP  RH WIND       PRES   REMARKS
LA CROSSE      LGT RAIN  65  62  90 S10       30.09S FOG
SPARTA         DRIZZLE   65  61  89 S5        30.11S
VIROQUA        CLOUDY    63  63 100 CALM      30.11F
BOSCOBEL       LGT RAIN  66  62  87 CALM      30.11S
PRAIRIE DU CHI RAIN      63  60  90 CALM      30.11S
PLATTEVILLE    CLOUDY    64  62  93 SE3       30.13S
$$

WIZ056-057-062-063-064-067-068-281800-
SOUTH CENTRAL WISCONSIN

CITY           SKY/WX    TMP DP  RH WIND       PRES   REMARKS
REEDSBURG      DRIZZLE   63  60  92 CALM      30.13S
BARABOO/DELLS  CLOUDY    65  57  77 SW5       30.13S
LONE ROCK      LGT RAIN  64  60  87 SE3       30.13F
MINERAL POINT  CLOUDY    64  61  88 SE5       30.13S
MADISON        LGT RAIN  65  58  78 S3        30.13S
MIDDLETON      CLOUDY    66  59  78 CALM      30.13F
WATERTOWN      CLOUDY    67  64  89 SW5       30.14R
MONROE         CLOUDY    64  59  82 CALM      30.13F
JANESVILLE     MOSUNNY   64  57  77 S6        30.15R
$$

WIZ051-052-058>065-066-070>072-281800-
SOUTHEAST WISCONSIN

CITY           SKY/WX    TMP DP  RH WIND       PRES   REMARKS
MILWAUKEE      CLOUDY    73  59  61 VRB7      30.13S
WAUKESHA       SUNNY     68  59  73 S5        30.15S
MILWAUKEE/TIMM SUNNY     72  57  60 SW5       30.14S
RACINE         CLOUDY    71  58  63 SE6       30.15F
BURLINGTON     CLOUDY    68  59  72 SW5       30.14S
KENOSHA        CLOUDY    74  60  61 S7        30.14S
FOND DU LAC    CLOUDY    70  60  70 W8        30.13R
SHEBOYGAN      CLOUDY    72  61  68 SW7       30.13S
WEST BEND      CLOUDY    70  57  64 SW5       30.14S
JUNEAU         CLOUDY    66  60  79 S6        30.15S
$$

LSZ147-162-281800-
LAKE SUPERIOR

STATION/POSITION TIME  TEMP    WIND        PRES    WAVE
                       AIR SEA DIR/SP/G            HT/PER
                 (UTC) (F)     (DEG/KT/KT) (MB)    (FT/S)
W MID LAKE BUOY  1650   58 56  200/  8/  8 1015.5R   0
DEVILS ISLAND    1700   60     220/  4/  6 1015.7R
PORT WING        1600   69     200/  8/ 13 1015.2
SAXON HARBOR     1600   70     200/ 10/ 17 1015.2R
$$

LMZ867-665-643>646-281800-
LAKE MICHIGAN

STATION/POSITION TIME  TEMP    WIND        PRES    WAVE
                       AIR SEA DIR/SP/G            HT/PER
                 (UTC) (F)     (DEG/KT/KT) (MB)    (FT/S)
CHAMBERS ISLAND  1600   66     190/  7/ 14 1019.3S
S GREEN BAY BUOY 1600   65     200/ 12/ 14 1020.9R
N MID LAKE BUOY  1650   63 64  200/ 16/ 19 1019.1F   3/ 4
NORTHPORT PIER   1640   66     160/  7/  9 1019.0F
SISTER BAY       1619   72     240/ 14/ 17   N/A
ALGOMA LAKESHORE 1644          210/  8/ 10   N/A
KEWAUNEE LAKESHO 1600   51     160/  9/ 10 1019.2R
SHEBOYGAN LAKESH 1700   58     160/ 12/ 12 1020.5F
PORT WASHINGTON  1600   57      CALM  /  1 1021.3
ATWATER BUOY     1700   56 50  180/  6/  6 1021.8S
MILWAUKEE LAKESH 1700   59     170/  1/  3   N/A
S MID LAKE BUOY  1650   67 68  170/  8/ 10 1020.7F   1/ 4
KENOSHA   LAKESH 1700   60     170/  9/ 10 1020.3S
$$

TC  - TEMPERATURE IN CELSIUS
VSB - VISIBILITY IN STATUTE MILES
WCI - WIND CHILL INDEX
HX  - HEAT INDEX




USA.gov is the U.S. government's official web portal to all federal, state and local government web resources and services.